Regional Weather Roundup
Issued by NWS

Home | Current Version | Previous Version | Text Only | Print | Product List | Glossary Off
Versions: 1 2 3 4 5 6 7 8 9 10 11 12 13 14 15 16 17 18 19 20 21 22 23 24 25 26 27 28 29 30 31 32 33 34 35 36 37 38 39 40 41 42 43 44 45 46 47 48 49 50

000
ASUS43 KMPX 231101
RWRMN
WEATHER ROUNDUP FOR MINNESOTA
NATIONAL WEATHER SERVICE TWIN CITIES/CHANHASSEN MN
600 AM CDT SAT MAY 23 2015


NOTE: "FAIR" INDICATES FEW OR NO CLOUDS BELOW 12,000 FEET WITH NO
SIGNIFICANT WEATHER AND/OR OBSTRUCTIONS TO VISIBILITY. N/A MEANS
CURRENT SKY AND/OR WEATHER CONDITIONS ARE NOT AVAILABLE.

MNZ060>063-068>070-231200-
   Twin Cities Metro

CITY           SKY/WX    TMP DP  RH WIND       PRES   REMARKS
TWIN CITIES    MOCLDY    54  41  61 SW5       30.23R
ST PAUL        PTCLDY    50  46  86 CALM      30.24R
CRYSTAL        PTCLDY    47  41  80 CALM      30.22R
BLAINE         CLEAR     46  45  93 CALM      30.23R
LAKEVILLE      PTCLDY    48  43  81 W5        30.24R
EDEN PRAIRIE   PTCLDY    50  41  71 SW3       30.23R
SOUTH ST PAUL  PTCLDY    48  44  85 CALM      30.23S
LAKE ELMO      FAIR      45  43  93 CALM      30.24S
$$
MNZ001>005-007-008-013>017-022>024-027-028-231200-
   Northwest Minnesota

CITY           SKY/WX    TMP DP  RH WIND       PRES   REMARKS
BEMIDJI        CLEAR     42  37  82 CALM      30.19R
HALLOCK        CLEAR     45  41  87 S8        30.13R
ROSEAU         CLEAR     55  41  58 SW9       30.14R
WARROAD        PTCLDY    55  43  62 SW7       30.14R
THIEF RVR FALL CLEAR     52  36  54 S5        30.17R
CROOKSTON      CLEAR     46  39  76 SE9       30.16S
FOSSTON        CLEAR     48  37  66 CALM      30.18S
DETROIT LAKES  CLEAR     50  45  81 CALM      30.21R
MOORHEAD       CLEAR     50  45  81 S8        30.19R
PARK RAPIDS    CLEAR     45  38  76 CALM      30.20R
MAHNOMEN       FAIR      50  39  67 S6        30.18R
$$
MNZ006-009>011-018-025>026-231200-
   North Central Minnesota

CITY           SKY/WX    TMP DP  RH WIND       PRES   REMARKS
BAUDETTE       CLEAR     50  39  66 SW7       30.14R
FLAG ISLAND    MOCLDY    59  45  58 N8        30.12R
INTL FALLS     CLEAR     47  37  68 SW7       30.14S
WASKISH        CLEAR     46  43  87 CALM      30.17R
BIG FORK       FAIR      41  39  93 CALM      30.19R
LONGVILLE      CLEAR     37  37 100 CALM      30.20S
GRAND RAPIDS   CLEAR     43  36  75 CALM      30.21R
CRANE LAKE     CLEAR     37  36  93 CALM      30.17S
COOK           CLEAR     46  39  76 CALM      30.19R
WALKER         FAIR      48  36  61 S3        30.19R
$$
MNZ012-019>021-037-231200-
   Northeast Minnesota

CITY           SKY/WX    TMP DP  RH WIND       PRES   REMARKS
DULUTH         CLEAR     56  35  45 W9        30.22R
ELY            CLEAR     52  37  58 SW6       30.18R
HIBBING        CLEAR     36  33  89 CALM      30.20R
EVELETH        CLEAR     36  36 100 CALM      30.21R
DULUTH HARBOR  CLEAR     52  41  66 SW9       30.21S
TWO HARBORS    CLEAR     50  39  66 NW3       30.19R
SILVER BAY     CLEAR     37  34  87 CALM      30.18R
GRAND MARAIS     N/A     42  33  70 W6        30.15R
G MARAIS ARPRT CLEAR     55  34  44 W10G16    30.17R
$$
MNZ029>031-032-039>041-046>048-054>057-064-231200-
   West Central Minnesota

CITY           SKY/WX    TMP DP  RH WIND       PRES   REMARKS
FERGUS FALLS   FAIR      50  43  76 CALM      30.22S
WHEATON        CLEAR     46  39  76 S6        30.23S
MORRIS         CLEAR     48  43  81 S7        30.22R
ALEXANDRIA     CLEAR     47  43  86 CALM      30.23R
ELBOW LAKE     FAIR      50  45  83 S5        30.22R
WADENA         CLEAR     48  41  76 W6        30.21R
GLENWOOD       CLEAR     50  45  81 W1        30.23R
APPLETON       PTCLDY    48  45  87 CALM      30.22F
BENSON         PTCLDY    48  45  87 CALM      30.23S
ORTONVILLE     PTCLDY    48  43  81 SE3       30.22S
MADISON        MOCLDY    50  45  81 CALM      30.22S
WILLMAR        FAIR      52  46  82 SW3       30.25R
$$
MNZ033>034-036-042>043-049>051-058-059-231200-
   Central Minnesota

CITY           SKY/WX    TMP DP  RH WIND       PRES   REMARKS
ST CLOUD       CLEAR     42  41  96 CALM      30.22R
SAUK CENTRE    FAIR      45  41  88 CALM      30.23S
PAYNESVILLE    CLEAR     43  41  93 CALM      30.23S
AITKIN         CLEAR     41  36  81 CALM      30.21R
PINE RIVER     CLEAR     39  37  93 CALM      30.24R
BRAINERD       CLEAR     40  38  93 CALM      30.22R
STAPLES        CLEAR     41  39  93 CALM      30.21S
LONG PRAIRIE   FAIR      45  41  87 CALM      30.23R
LITTLE FALLS   CLEAR     41  36  81 CALM      30.22R
LITCHFIELD     CLEAR     52  46  82 CALM      30.24R
BUFFALO        CLEAR     47  42  81 CALM      30.24R
MAPLE LAKE     CLEAR     48  44  84 CALM      30.24R
$$
MNZ037-044-045-052-053-231200-
   East Central Minnesota

CITY           SKY/WX    TMP DP  RH WIND       PRES   REMARKS
PRINCETON      CLEAR     43  39  87 CALM      30.23R
MORA             N/A     37  36  93 CALM      30.24S FOG
CAMBRIDGE      CLEAR     46  37  71 CALM      30.21S
RUSH CITY      CLEAR     39  37  94 CALM      30.24R
MOOSE LAKE     CLEAR     37  36  93 CALM      30.21S FOG
HINCKLEY       FAIR      37  37 100 CALM      30.24R
CLOQUET        CLEAR     54  34  47 SW6       30.22R
MCGREGOR       CLEAR     43  37  81 CALM      30.23R
$$
MNZ071>073-080-081-089-090-097-098-231200-
   Southwest Minnesota

CITY           SKY/WX    TMP DP  RH WIND       PRES   REMARKS
MONTEVIDEO     MOCLDY    52  46  82 S3        30.24S
GRANITE FALLS  CLOUDY    52  44  72 SE3       30.25S
CANBY          LGT RAIN  51  47  85 SE3       30.24R
MARSHALL       CLOUDY    54  43  66 SE3       30.23S
REDWOOD FALLS  CLOUDY    53  45  74 SW5       30.25R
OLIVIA         CLOUDY    48  41  76 CALM      30.24R
PIPESTONE      CLOUDY    55  46  71 E3        30.21S
WINDOM         CLOUDY    54  48  82 CALM      30.23F
WORTHINGTON    CLOUDY    54  45  71 S7        30.23S
JACKSON        CLOUDY    54  52  94 E6        30.23S
TRACY          DRIZZLE   56  47  73 CALM      30.24R
SLAYTON        CLOUDY    53  49  86 CALM      30.23S
$$
MNZ065>067-074>077-082>085-091>093-231200-
   South Central Minnesota

CITY           SKY/WX    TMP DP  RH WIND       PRES   REMARKS
MANKATO        CLOUDY    54  43  66 CALM      30.25R
NEW ULM        CLOUDY    52  46  82 CALM      30.25R
ST JAMES       LGT RAIN  55  48  76 SW5       30.27S
FAIRMONT       CLOUDY    55  45  67 NE9       30.24F
GLENCOE        PTCLDY    50  45  83 CALM      30.24R
FARIBAULT      PTCLDY    54  43  66 W6        30.25R
OWATONNA       PTCLDY    52  41  66 CALM      30.25S
WASECA         CLOUDY    52  45  76 N5        30.25F
ALBERT LEA     CLOUDY    57  45  62 N5        30.25S
$$
MNZ078>079-086>088-094>096-231200-
   Southeast Minnesota

CITY           SKY/WX    TMP DP  RH WIND       PRES   REMARKS
ROCHESTER      MOCLDY    50  42  74 SW6       30.26R
RED WING       PTCLDY    45  43  93 CALM      30.23R
STANTON        MOCLDY    49  41  74 S5        30.23R
DODGE CENTER   MOCLDY    52  43  71 W8        30.25R
WINONA         PTCLDY    48  46  93 CALM      30.26R
AUSTIN         CLOUDY    54  45  71 N3        30.25S
PRESTON        MOCLDY    51  42  71 S6        30.26R
$$
ABBREVIATIONS USED IN REMARKS
   TC - TEMPERATURES IN CELSIUS
  WCI - WIND CHILL INDEX
   HX - HEAT INDEX
  VSB - VISIBILITY
$$



USA.gov is the U.S. government's official web portal to all federal, state and local government web resources and services.